{"data":{"norad_id":38779,"intl_designator":"2012-051B","name":"GSAT-10 (GAGAN/PRN 128)","alt_names":[],"object_type":"PAYLOAD","status":"ACTIVE","operator":null,"country":"IND","launch_date":"2012-09-28","launch_site_code":"FRGUI","launch_vehicle":null,"mission":null,"orbit_class":"UNKNOWN","rcs_meters":13.8482,"size_class":null,"mass_kg":null,"dimensions":null,"purposes":["comms","nav"],"wikipedia_slug":null,"has_3d_model":false,"image_url":null,"decayed_at":null,"tle_current":{"epoch":"2026-05-25T04:08:07.507968Z","epoch_age_seconds":53478,"freshness":"FRESH","line1":"1 38779U 12051B   26145.17230912 -.00000167  00000+0  00000+0 0  9999","line2":"2 38779   0.0447 261.3571 0007634 182.5825 303.8353  1.00273150 49868","mean_motion":1.0027315,"eccentricity":0.0007634,"inclination_deg":0.0447,"raan_deg":261.3571,"arg_perigee_deg":182.5825,"mean_anomaly_deg":303.8353,"bstar":0,"rev_number":4986,"period_min":1436.0773547056,"perigee_km":35754.02404222,"apogee_km":35818.400570741,"semimajor_km":42164.349306481,"source":"CELESTRAK","updated_at":"2026-05-25T13:38:24.339239Z"}}}